| time (UTC) | temp F | wind direction | speed MPH | gust MPH | rain 1hr in | rain 24hr in | rain mn in | humidity % | barometer mb |
| 20260509222016 | 59 | 173 | 7.0 | 14.0 | 0.00 | 0.00 | 0.00 | 63 | 1007.1 |
| 20260509221019 | 59 | 174 | 6.0 | 10.0 | 0.00 | 0.00 | 0.00 | 62 | 1007.0 |
| 20260509220020 | 59 | 173 | 6.0 | 13.0 | 0.00 | 0.00 | 0.00 | 60 | 1007.0 |
| 20260509215017 | 60 | 186 | 6.0 | 14.0 | 0.00 | 0.00 | 0.00 | 57 | 1007.1 |
| 20260509214020 | 60 | 185 | 7.0 | 14.0 | 0.00 | 0.00 | 0.00 | 56 | 1007.2 |
| 20260509213037 | 61 | 186 | 6.0 | 11.0 | 0.00 | 0.00 | 0.00 | 53 | 1007.4 |
| 20260509212017 | 61 | 177 | 6.0 | 12.0 | 0.00 | 0.00 | 0.00 | 53 | 1007.3 |
| 20260509211021 | 61 | 184 | 6.0 | 13.0 | 0.00 | 0.00 | 0.00 | 53 | 1007.2 |
| 20260509210019 | 61 | 185 | 6.0 | 10.0 | 0.00 | 0.00 | 0.00 | 51 | 1007.3 |
| 20260509205018 | 61 | 167 | 6.0 | 12.0 | 0.00 | 0.00 | 0.00 | 51 | 1007.3 |
| 20260509204022 | 62 | 180 | 5.0 | 10.0 | 0.00 | 0.00 | 0.00 | 49 | 1007.4 |
| 20260509203018 | 62 | 181 | 5.0 | 10.0 | 0.00 | 0.00 | 0.00 | 47 | 1007.4 |
| 20260509202018 | 62 | 183 | 6.0 | 12.0 | 0.00 | 0.00 | 0.00 | 44 | 1007.5 |
| 20260509201019 | 63 | 181 | 5.0 | 11.0 | 0.00 | 0.00 | 0.00 | 41 | 1007.6 |
| 20260509200019 | 63 | 182 | 6.0 | 16.0 | 0.00 | 0.00 | 0.00 | 42 | 1007.6 |
| 20260509195041 | 63 | 186 | 6.0 | 10.0 | 0.00 | 0.00 | 0.00 | 39 | 1007.7 |
| 20260509194019 | 64 | 184 | 6.0 | 12.0 | 0.00 | 0.00 | 0.00 | 34 | 1007.7 |
| 20260509193017 | 64 | 191 | 6.0 | 12.0 | 0.00 | 0.00 | 0.00 | 31 | 1007.7 |
| 20260509192020 | 64 | 180 | 6.0 | 13.0 | 0.00 | 0.00 | 0.00 | 29 | 1007.7 |
| 20260509191040 | 64 | 180 | 6.0 | 17.0 | 0.00 | 0.00 | 0.00 | 28 | 1007.8 |
| 20260509190017 | 64 | 188 | 4.0 | 11.0 | 0.00 | 0.00 | 0.00 | 30 | 1007.8 |
| 20260509185020 | 64 | 188 | 5.0 | 13.0 | 0.00 | 0.00 | 0.00 | 28 | 1008.0 |
| 20260509184037 | 64 | 184 | 5.0 | 9.0 | 0.00 | 0.00 | 0.00 | 26 | 1008.2 |
| 20260509183018 | 64 | 183 | 5.0 | 11.0 | 0.00 | 0.00 | 0.00 | 28 | 1008.2 |
| 20260509182020 | 64 | 176 | 4.0 | 11.0 | 0.00 | 0.00 | 0.00 | 29 | 1008.5 |
| 20260509181018 | 63 | 184 | 5.0 | 13.0 | 0.00 | 0.00 | 0.00 | 27 | 1008.5 |
| 20260509180019 | 64 | 175 | 4.0 | 9.0 | 0.00 | 0.00 | 0.00 | 28 | 1008.8 |
| 20260509175039 | 64 | 172 | 3.0 | 6.0 | 0.00 | 0.00 | 0.00 | 28 | 1009.0 |
| 20260509174018 | 63 | 176 | 5.0 | 10.0 | 0.00 | 0.00 | 0.00 | 28 | 1009.1 |
| 20260509173019 | 63 | 176 | 5.0 | 13.0 | 0.00 | 0.00 | 0.00 | 28 | 1009.2 |
| 20260509172040 | 63 | 178 | 4.0 | 10.0 | 0.00 | 0.00 | 0.00 | 28 | 1009.3 |
| 20260509171020 | 62 | 189 | 4.0 | 9.0 | 0.00 | 0.00 | 0.00 | 29 | 1009.5 |
| 20260509170020 | 62 | 184 | 5.0 | 9.0 | 0.00 | 0.00 | 0.00 | 28 | 1009.8 |
| 20260509165019 | 62 | 168 | 6.0 | 12.0 | 0.00 | 0.00 | 0.00 | 28 | 1009.9 |
| 20260509164019 | 62 | 191 | 4.0 | 10.0 | 0.00 | 0.00 | 0.00 | 30 | 1009.9 |
| 20260509163040 | 62 | 181 | 6.0 | 11.0 | 0.00 | 0.00 | 0.00 | 30 | 1010.0 |
| 20260509162018 | 61 | 183 | 5.0 | 11.0 | 0.00 | 0.00 | 0.00 | 31 | 1010.2 |
| 20260509161021 | 61 | 183 | 5.0 | 9.0 | 0.00 | 0.00 | 0.00 | 30 | 1010.3 |
| 20260509160019 | 61 | 183 | 6.0 | 12.0 | 0.00 | 0.00 | 0.00 | 32 | 1010.4 |
| 20260509155018 | 60 | 179 | 6.0 | 10.0 | 0.00 | 0.00 | 0.00 | 35 | 1010.7 |
| 20260509154041 | 59 | 177 | 6.0 | 10.0 | 0.00 | 0.00 | 0.00 | 35 | 1010.8 |
| 20260509153017 | 59 | 177 | 6.0 | 10.0 | 0.00 | 0.00 | 0.00 | 37 | 1011.1 |
| 20260509152017 | 59 | 169 | 6.0 | 11.0 | 0.00 | 0.00 | 0.00 | 37 | 1011.1 |
| 20260509151022 | 58 | 181 | 4.0 | 9.0 | 0.00 | 0.00 | 0.00 | 39 | 1011.2 |
| 20260509150018 | 57 | 192 | 6.0 | 10.0 | 0.00 | 0.00 | 0.00 | 39 | 1011.3 |
| 20260509145018 | 57 | 199 | 6.0 | 11.0 | 0.00 | 0.00 | 0.00 | 42 | 1011.3 |
| 20260509144018 | 57 | 181 | 5.0 | 11.0 | 0.00 | 0.00 | 0.00 | 42 | 1011.3 |
| 20260509143019 | 57 | 200 | 5.0 | 10.0 | 0.00 | 0.00 | 0.00 | 43 | 1011.2 |
| 20260509142019 | 56 | 185 | 4.0 | 10.0 | 0.00 | 0.00 | 0.00 | 45 | 1011.4 |
| 20260509141020 | 55 | 170 | 4.0 | 8.0 | 0.00 | 0.00 | 0.00 | 47 | 1011.4 |
| 20260509140019 | 55 | 179 | 5.0 | 10.0 | 0.00 | 0.00 | 0.00 | 48 | 1011.5 |
| 20260509135020 | 54 | 181 | 5.0 | 11.0 | 0.00 | 0.00 | 0.00 | 49 | 1011.5 |
| 20260509134039 | 54 | 177 | 4.0 | 11.0 | 0.00 | 0.00 | 0.00 | 50 | 1011.6 |
| 20260509133019 | 53 | 198 | 5.0 | 9.0 | 0.00 | 0.00 | 0.00 | 51 | 1011.7 |
| 20260509132016 | 53 | 183 | 5.0 | 10.0 | 0.00 | 0.00 | 0.00 | 52 | 1011.7 |
| 20260509131020 | 52 | 191 | 4.0 | 8.0 | 0.00 | 0.00 | 0.00 | 54 | 1011.8 |
| 20260509130021 | 51 | 193 | 4.0 | 9.0 | 0.00 | 0.00 | 0.00 | 56 | 1011.9 |
| 20260509125017 | 50 | 193 | 4.0 | 8.0 | 0.00 | 0.00 | 0.00 | 57 | 1012.0 |
| 20260509124020 | 50 | 191 | 4.0 | 8.0 | 0.00 | 0.00 | 0.00 | 57 | 1012.0 |
| 20260509123018 | 49 | 173 | 4.0 | 8.0 | 0.00 | 0.00 | 0.00 | 60 | 1012.0 |
| 20260509122038 | 47 | 197 | 4.0 | 6.0 | 0.00 | 0.00 | 0.00 | 63 | 1011.9 |
| 20260509121018 | 47 | 184 | 3.0 | 7.0 | 0.00 | 0.00 | 0.00 | 64 | 1011.8 |
| 20260509120018 | 46 | 187 | 3.0 | 7.0 | 0.00 | 0.00 | 0.00 | 65 | 1012.0 |
| 20260509115018 | 45 | 187 | 3.0 | 5.0 | 0.00 | 0.00 | 0.00 | 67 | 1012.0 |
| 20260509114042 | 45 | 177 | 4.0 | 8.0 | 0.00 | 0.00 | 0.00 | 67 | 1011.9 |
| 20260509113040 | 44 | 182 | 4.0 | 8.0 | 0.00 | 0.00 | 0.00 | 70 | 1012.1 |
| 20260509112020 | 43 | 203 | 4.0 | 7.0 | 0.00 | 0.00 | 0.00 | 73 | 1012.1 |
| 20260509111039 | 42 | 210 | 4.0 | 7.0 | 0.00 | 0.00 | 0.00 | 74 | 1012.2 |
| 20260509110019 | 41 | 213 | 3.0 | 6.0 | 0.00 | 0.00 | 0.00 | 74 | 1012.1 |
| 20260509105019 | 40 | 201 | 4.0 | 7.0 | 0.00 | 0.00 | 0.00 | 74 | 1012.0 |
| 20260509104019 | 40 | 193 | 3.0 | 6.0 | 0.00 | 0.00 | 0.00 | 74 | 1011.9 |
| 20260509103019 | 40 | 188 | 3.0 | 5.0 | 0.00 | 0.00 | 0.00 | 74 | 1011.8 |
| 20260509102044 | 40 | 188 | 3.0 | 5.0 | 0.00 | 0.00 | 0.00 | 74 | 1011.7 |
| 20260509101019 | 40 | 205 | 3.0 | 5.0 | 0.00 | 0.00 | 0.00 | 74 | 1011.7 |
| 20260509100019 | 40 | 205 | 3.0 | 6.0 | 0.00 | 0.00 | 0.00 | 74 | 1011.6 |
| 20260509095040 | 40 | 194 | 3.0 | 5.0 | 0.00 | 0.00 | 0.00 | 74 | 1011.5 |
| 20260509094022 | 40 | 211 | 2.0 | 4.0 | 0.00 | 0.00 | 0.00 | 74 | 1011.5 |
| 20260509093024 | 40 | 209 | 2.0 | 3.0 | 0.00 | 0.00 | 0.00 | 74 | 1011.3 |
| 20260509092023 | 40 | 209 | 2.0 | 4.0 | 0.00 | 0.00 | 0.00 | 73 | 1011.3 |
| 20260509091023 | 40 | 210 | 2.0 | 2.0 | 0.00 | 0.00 | 0.00 | 73 | 1011.3 |
| 20260509090023 | 40 | 201 | 2.0 | 3.0 | 0.00 | 0.00 | 0.00 | 73 | 1011.2 |
| 20260509085024 | 40 | 188 | 2.0 | 5.0 | 0.00 | 0.00 | 0.00 | 72 | 1011.2 |
| 20260509084024 | 40 | 199 | 3.0 | 5.0 | 0.00 | 0.00 | 0.00 | 71 | 1011.3 |
| 20260509083021 | 40 | 199 | 3.0 | 7.0 | 0.00 | 0.00 | 0.00 | 70 | 1011.4 |
| 20260509082022 | 41 | 195 | 3.0 | 6.0 | 0.00 | 0.00 | 0.00 | 70 | 1011.2 |
| 20260509081024 | 41 | 196 | 3.0 | 5.0 | 0.00 | 0.00 | 0.00 | 69 | 1011.2 |
| 20260509080104 | 41 | 195 | 2.0 | 4.0 | 0.00 | 0.00 | 0.00 | 69 | 1011.2 |
| 20260509075024 | 41 | 193 | 3.0 | 4.0 | 0.00 | 0.00 | 0.00 | 69 | 1011.2 |
| 20260509074026 | 41 | 196 | 2.0 | 4.0 | 0.00 | 0.00 | 0.00 | 69 | 1011.3 |
| 20260509073024 | 41 | 201 | 2.0 | 4.0 | 0.00 | 0.00 | 0.00 | 69 | 1011.2 |
| 20260509072025 | 42 | 200 | 2.0 | 4.0 | 0.00 | 0.00 | 0.00 | 68 | 1011.2 |
| 20260509071208 | 43 | 187 | 2.0 | 4.0 | 0.00 | 0.00 | 0.00 | 68 | 1011.1 |
| 20260509070025 | 44 | 191 | 2.0 | 4.0 | 0.00 | 0.00 | 0.00 | 65 | 1011.0 |
| 20260509065026 | 44 | 182 | 2.0 | 4.0 | 0.00 | 0.00 | 0.00 | 64 | 1011.0 |
| 20260509064026 | 45 | 194 | 2.0 | 3.0 | 0.00 | 0.00 | 0.00 | 62 | 1011.0 |
| 20260509063043 | 45 | 184 | 3.0 | 5.0 | 0.00 | 0.00 | 0.00 | 60 | 1010.9 |
| 20260509062026 | 45 | 187 | 3.0 | 5.0 | 0.00 | 0.00 | 0.00 | 61 | 1010.9 |
| 20260509061027 | 45 | 207 | 2.0 | 3.0 | 0.00 | 0.00 | 0.00 | 61 | 1011.0 |
| 20260509060027 | 45 | 196 | 3.0 | 4.0 | 0.00 | 0.00 | 0.00 | 61 | 1011.0 |
| 20260509055026 | 46 | 189 | 3.0 | 4.0 | 0.00 | 0.00 | 0.00 | 60 | 1011.0 |
| 20260509054027 | 46 | 194 | 2.0 | 5.0 | 0.00 | 0.00 | 0.00 | 60 | 1011.1 |
| 20260509053023 | 46 | 194 | 3.0 | 6.0 | 0.00 | 0.00 | 0.00 | 59 | 1011.0 |
| 20260509052040 | 46 | 192 | 3.0 | 6.0 | 0.00 | 0.00 | 0.00 | 60 | 1011.0 |
| 20260509051019 | 46 | 199 | 3.0 | 6.0 | 0.00 | 0.00 | 0.00 | 60 | 1011.0 |
| 20260509050018 | 46 | 186 | 3.0 | 6.0 | 0.00 | 0.00 | 0.00 | 62 | 1011.0 |
| 20260509045040 | 46 | 189 | 3.0 | 7.0 | 0.00 | 0.00 | 0.00 | 63 | 1011.0 |
| 20260509044039 | 46 | 185 | 3.0 | 6.0 | 0.00 | 0.00 | 0.00 | 64 | 1011.0 |
| 20260509043020 | 47 | 180 | 3.0 | 5.0 | 0.00 | 0.00 | 0.00 | 61 | 1011.0 |
| 20260509042019 | 47 | 193 | 3.0 | 5.0 | 0.00 | 0.00 | 0.00 | 60 | 1011.0 |
| 20260509041019 | 47 | 188 | 2.0 | 5.0 | 0.00 | 0.00 | 0.00 | 61 | 1010.9 |
| 20260509040020 | 48 | 200 | 2.0 | 5.0 | 0.00 | 0.00 | 0.00 | 61 | 1010.9 |
| 20260509035019 | 48 | 197 | 2.0 | 4.0 | 0.00 | 0.00 | 0.00 | 59 | 1011.0 |
| 20260509034037 | 49 | 206 | 2.0 | 5.0 | 0.00 | 0.00 | 0.00 | 57 | 1010.9 |
| 20260509033020 | 49 | 209 | 2.0 | 5.0 | 0.00 | 0.00 | 0.00 | 57 | 1010.9 |
| 20260509032017 | 49 | 216 | 1.0 | 3.0 | 0.00 | 0.00 | 0.00 | 56 | 1010.8 |
| 20260509031017 | 49 | 215 | 2.0 | 6.0 | 0.00 | 0.00 | 0.00 | 56 | 1010.8 |
| 20260509030042 | 50 | 214 | 2.0 | 5.0 | 0.00 | 0.00 | 0.00 | 56 | 1010.8 |
| 20260509025018 | 50 | 214 | 3.0 | 5.0 | 0.00 | 0.00 | 0.00 | 56 | 1010.8 |
| 20260509024018 | 50 | 212 | 3.0 | 6.0 | 0.00 | 0.00 | 0.00 | 56 | 1010.8 |
| 20260509023018 | 50 | 211 | 2.0 | 4.0 | 0.00 | 0.00 | 0.00 | 55 | 1010.7 |
| 20260509022018 | 51 | 204 | 2.0 | 6.0 | 0.00 | 0.00 | 0.00 | 54 | 1010.7 |
| 20260509021019 | 51 | 227 | 2.0 | 4.0 | 0.00 | 0.00 | 0.00 | 53 | 1010.6 |
| 20260509020020 | 51 | 230 | 2.0 | 5.0 | 0.00 | 0.00 | 0.00 | 54 | 1010.6 |
| 20260509015019 | 51 | 217 | 1.0 | 4.0 | 0.00 | 0.00 | 0.00 | 54 | 1010.6 |
| 20260509014020 | 51 | 208 | 3.0 | 6.0 | 0.00 | 0.00 | 0.00 | 52 | 1010.4 |
| 20260509013039 | 51 | 208 | 2.0 | 5.0 | 0.00 | 0.00 | 0.00 | 52 | 1010.3 |
| 20260509012019 | 51 | 217 | 2.0 | 5.0 | 0.00 | 0.00 | 0.00 | 52 | 1010.2 |
| 20260509011019 | 51 | 225 | 3.0 | 8.0 | 0.00 | 0.00 | 0.00 | 52 | 1010.1 |
| 20260509010020 | 51 | 249 | 3.0 | 10.0 | 0.00 | 0.00 | 0.00 | 51 | 1010.0 |
| 20260509005020 | 51 | 240 | 3.0 | 6.0 | 0.00 | 0.00 | 0.00 | 51 | 1009.9 |
| 20260509004037 | 51 | 225 | 3.0 | 7.0 | 0.00 | 0.00 | 0.00 | 51 | 1009.7 |
| 20260509003020 | 51 | 213 | 3.0 | 8.0 | 0.00 | 0.00 | 0.00 | 51 | 1009.7 |
| 20260509002038 | 52 | 221 | 3.0 | 9.0 | 0.00 | 0.00 | 0.00 | 51 | 1009.6 |
| 20260509001018 | 52 | 210 | 3.0 | 7.0 | 0.00 | 0.00 | 0.00 | 49 | 1009.5 |
| 20260509000020 | 52 | 208 | 4.0 | 9.0 | 0.00 | 0.00 | 0.00 | 48 | 1009.4 |
| 20260508235019 | 52 | 205 | 3.0 | 8.0 | 0.00 | 0.00 | 0.00 | 47 | 1009.3 |
| 20260508234018 | 52 | 199 | 3.0 | 7.0 | 0.00 | 0.00 | 0.00 | 46 | 1009.2 |
| 20260508233021 | 52 | 217 | 2.0 | 6.0 | 0.00 | 0.00 | 0.00 | 46 | 1009.2 |
| 20260508232019 | 53 | 202 | 3.0 | 5.0 | 0.00 | 0.00 | 0.00 | 46 | 1009.1 |
| 20260508231020 | 54 | 216 | 2.0 | 5.0 | 0.00 | 0.00 | 0.00 | 44 | 1009.1 |
| 20260508230018 | 54 | 196 | 3.0 | 8.0 | 0.00 | 0.00 | 0.00 | 44 | 1009.1 |
| 20260508225020 | 53 | 243 | 3.0 | 8.0 | 0.00 | 0.00 | 0.00 | 45 | 1009.2 |
| 20260508224019 | 52 | 201 | 3.0 | 5.0 | 0.00 | 0.00 | 0.00 | 47 | 1009.2 |
| 20260508223039 | 52 | 217 | 3.0 | 6.0 | 0.00 | 0.00 | 0.00 | 47 | 1009.2 |